CZ-3A R/B, 30324

Orbit data source: Space-Track

CZ-3A R/B, 30324 is space debris in HEO originally from a launch on Fri, 02 Feb 2007 UTC launched from the Xichang Space Center, China (XSC). Debris objects in space refer to the collection of defunct objects orbiting the Earth. Examples of debris include non-operational satellites, rocket bodies, and fragments generated from explosions, collisions, or faulty payload assembly.

Loading next visibility...
Identifier
30324, 2007-003B
Orbit
HEO
Country
Flag of CNCN / PRC
Related business
Manufacturer
CALT
Mission
Spacecraft
Bus & Motor
CZ-3A STAGE 3, Unknown motor
Mass
~2,800 kg wet, ~2,800 kg dry
Launch date (UTC)
2007-02-02 (19 years ago)
Launch vehicle
Unknown
Launch site
Xichang Space Center, China (XSC)
Object type
Payload
Rocket body
Debris
Shape & HBR
Cyl + 1 Nozzle, 6.2 m
Radar Cross Section
32.751 m², Large (>1 m²)

Expand to show TLE details & history
Last TLE update: 2 days ago

TLE from 2 days ago
0 CZ-3A R/B
1 30324U 07003B   26034.20103941  .00004676  00000-0  11784-2 0  9993
2 30324  24.6543  98.5007 5771714 272.0932  26.6203  4.37210657227605
Epoch: 2026-02-03T04:49Z
TLE epoch observation values (Epoch: 2026-02-03T04:49:29.805Z)
Latitude
0.00003°
Longitude
-107.21918°
Altitude
3,954.692 km
Speed
7.206 km/s
True Right ascension
06h 34m 09s
True Declination
0° 00' 00"
Sunlit
Object was in daylight at epoch
Visualization orbit readout
Latitude
Unknown
Longitude
Unknown
Altitude
Unknown
Speed
Unknown
Apparent Right ascension
Unknown
Apparent Declination
Unknown
Sunlit
N/A
Visualization observer readout
Local Sidereal Time
13:36:35
Azimuth
Unknown
Elevation
Unknown
Doppler factor
Unknown
Orbital elements
Apogee altitude
18,544.338 km
Perigee altitude
303.404 km
Semi-major axis
15,802.008 km
Eccentricity
0.57717
Inclination
24.6543°
RAAN
98.5007°
Arg. of periapsis
272.0932°
True anomaly
87.89498°
Mean anomaly
26.6203°
Eccentric anomaly
53.04713°
Mean motion
1.09263 °/min
Orbital period
329.48 mins
BSTAR
0.0011784
Loading maneuver chart data...
Computing Atmospheric mass density...
Loading historical data...
Loading historical data...
Loading historical data...
Loading historical data...
Loading historical data...
Loading historical data...
Loading historical data...

Documentation

Showing up to 5 results
|